Время (UTC), дата Ветер
(°,м/с) 
Видим.   Явления Облачность Т
(°С)
Тd
(°С)
f(%) Тe
(°С)
Pmin
(гПа)
dP
(гПа)
Po
(мм)
O2
(г/м3)
Тmin Tmax R s Состояние
почвы
00 01.03.10 тихо ()   4000 м  слаб. снег  10/0 верхняя 
[Cs]
-19 -20.2 90 -19  1018.8  -3.3  736  320  -19.2    0.0  45  равномерный
сухой снег
100% 
06 01.03.10 360 (С) >10 км  слаб. снег  10/10 2000 м 
[Ns]
-10.3 -12.3 85 -12  1011.7  -3  732  308           
09 01.03.10 тихо ()   >10 км  слаб. снег  10/10 2000 м 
[Ns]
-8.1 -11.3 78 -8  1009.1  -2.2  730  304           
12 01.03.10 030 (СВ) 4000 м  ливневой снег  10/10 600 м кучево-дожд. 
[Cb cap]
-9.5 -10.7 91 -9  1009.8  0.6  731  306    -8.1     
15 01.03.10 240 (ЮЗ) 4000 м  {ливн. осадки}  9/8 600 м кучево-дожд., верхняя 
[Cb cap|Ci fib]
-12.7 -14.7 85 -15  1013.1  2.6  733  311           
18 01.03.10 240 (ЮЗ) 4000 м  {ливн. осадки}  10/6 600 м кучево-дожд., верхняя 
[Cb cap|Cs]
-13.6 -16.3 80 -16  1015.1  1.9  734  313           
21 01.03.10 250 (З) 4000 м  слаб. ливневой снег  10/5 600 м кучево-дожд., верхняя 
[Cb cap|Cs]
-14.8 -17.5 80 -17  1017.4  736  315           
00 02.03.10 230 (ЮЗ) 4000 м  {ливн. осадки}  9/5 600 м кучево-дожд., верхняя 
[Cb cap|Cs]
-16.4 -19 81 -20  1020.3  2.6  738  318  -16.4    0.2  47  равномерный
сухой снег
100% 
03 02.03.10 250 (З) >10 км  слаб. ливневой снег  10/6 600 м кучево-дожд., верхняя 
[Cb cap|Cs]
-16.7 -20.1 75 -22  1024.1  3.6  740  319           
06 02.03.10 270 (З) >10 км  слаб. ливневой снег  10/6 600 м кучево-дожд., верхняя 
[Cb cap|Cs]
-15.2 -20.3 65 -19  1026.5  2.6  742  318           
09 02.03.10 270 (З) >10 км  слаб. ливневой снег  10/5 600 м кучево-дожд., средняя, верхняя 
[Cb cap|Ac lent|Cs]
-15.8 -20.9 65 -20  1029.3  2.5  744  320           
12 02.03.10 260 (З) >10 км  слаб. ливневой снег  10/6 600 м кучево-дожд., средняя, верхняя 
[Cb cap|Ac lent|Cs]
-17.8 -21.9 70 -22  1033.1  3.4  747  323    -15.1  0.0     
15 02.03.10 240 (ЮЗ) 4000 м  слаб. ливневой снег  10/3 600 м кучево-дожд., верхняя 
[Cb cap|Cs]
-18.9 -23 70 -23  1036.7  3.3  749  326           
18 02.03.10 230 (ЮЗ) 4000 м  слаб. снег{ливн. осадки}  10/0 верхняя 
[Cs]
-20.2 -23.5 75 -25  1038.8  1.9  751  328           
21 02.03.10 230 (ЮЗ) 4000 м  слаб. снег  10/0 верхняя 
[Cs]
-21.3 -24.6 75 -26  1040.3  1.3  752  330           
00 03.03.10 230 (ЮЗ) 4000 м  в посл. час снег  10/3 600 м кучево-дожд., верхняя 
[Cb cap|Cs]
-22.3 -25.5 75 -27  1042.2  1.7  753  332  -22.5    0.2  47  равномерный
сухой снег
100% 
03 03.03.10 230 (ЮЗ) 10 км  слаб. ливневой снег  9/6 600 м кучево-дожд., верхняя 
[Cb cap|Ci fib]
-21.4 -24.7 75 -28  1041.8  -0.3  753  331           
06 03.03.10 250 (З) >10 км  слаб. ливневой снег  9/3 600 м кучево-дожд., средняя, верхняя 
[Cb cap|Ac trans|Ci fib]
-18.3 -23.3 65 -24  1041.2  -0.1  753  327           
09 03.03.10 240 (ЮЗ) >10 км  слаб. ливневой снег  9/8 600 м кучево-дожд., верхняя 
[Cb cap|Ci fib]
-16.7 -21.7 65 -21  1039.6  -1.4  752  324           
12 03.03.10 тихо ()   >10 км  {ливн. осадки}  ясно 600 м 
-20.6 -25.5 65 -21  1039  -1.2  751  329    -16.5  0.2     
15 03.03.10 тихо ()   4000 м    ясно 
-23.2 -26.4 75 -23  1037.3  -1.9  749  332           
18 03.03.10 040 (СВ) 4000 м    ясно 
-23 -25.5 80 -26  1035.5  -1.7  748  331           
21 03.03.10 тихо ()   4000 м    3/0 верхняя 
[Ci fib]
-26.4 -28.2 85 -26  1034.2  -1.7  747  335           
00 04.03.10 тихо ()   4000 м  слаб. снег  10/0 верхняя 
[Cs]
-27.6 -29.3 84 -28  1033.7  -0.8  746  336  -27.8    0.0  47  равномерный
сухой снег
100% 
03 04.03.10 030 (СВ) >10 км  {снег}  9/0 верхняя 
[Ci fib]
-23.8 -25.6 84 -24  1032.7  -0.4  746  331           
06 04.03.10 060 (СВ) 4000 м  дымка{снег}  9/0 верхняя 
[Ci fib]
-20.1 -23.4 75 -20  1031  -1  745  326           
09 04.03.10 010 (С) 4000 м  дым  9/0 верхняя 
[Ci fib]
-16.2 -21.2 65 -16  1030  -0.4  745  321           
12 04.03.10 030 (СВ) >10 км    ясно 
-20.5 -23.8 75 -21  1031.4  0.7  745  326    -15.5  0.0     
15 04.03.10 200 (Ю) 4000 м    ясно 
-22.5 -25 80 -23  1033.3  1.6  746  330           
18 04.03.10 210 (ЮЗ) 4000 м    ясно 
-23.8 -36.3 30 -24  1034.5  0.9  747  332           
21 04.03.10 210 (ЮЗ) 4000 м    ясно 
-25.3 -27.7 81 -26  1036.1  1.3  748  334           
00 05.03.10 240 (ЮЗ) 4000 м    ясно 
-26.6 -28.3 86 -27  1039  2.5  750  337  -26.6      47  равномерный
сухой снег
100% 
03 05.03.10 тихо ()   >10 км    ясно 
-22.2 -24.7 81 -22  1040.3  2.1  752  331           
06 05.03.10 060 (СВ) >10 км    ясно 
-20.3 -22.8 80 -21  1041.5  1.4  753  329           
09 05.03.10 080 (В) >10 км    ясно 
-17.8 -22.8 65 -18  1042.8  1.6  754  327           
12 05.03.10 210 (ЮЗ) >10 км    ясно 
-21.5 -24.7 75 -22  1045.2  1.8  755  332    -17.2       
15 05.03.10 тихо ()   4000 м    ясно 
-23.3 -25.8 80 -23  1046.8  1.3  756  335           
18 05.03.10 тихо ()   4000 м    ясно 
-24.2 -26 85 -24  1047.1  0.1  756  336           
21 05.03.10 тихо ()   4000 м    ясно 
-27.8 -29.6 85 -28  1049.4  1.6  754  340           
00 06.03.10 тихо ()   4000 м    ясно 
-28 -29.8 85 -28  1049.8  0.4  758  342  -28      47  равномерный
мокрый или
старый снег
100% 
03 06.03.10 тихо ()   4000 м  дымка  ясно 
-24.7 -26.5 84 -25  1050.5  1.1  759  338           
06 06.03.10 040 (СВ) 4000 м  дымка  ясно 
-20.2 -23.5 75 -20  1049.5  -0.2  758  332           
09 06.03.10 030 (СВ) >10 км    ясно 
-15.6 -20.7 65 -16  1048.6  -0.3  758  326           
12 06.03.10 270 (З) >10 км    ясно 
-19 -22.3 75 -19  1049.1  0.1  758  330    -15.6       
15 06.03.10 190 (Ю) 4000 м    ясно 
-20.9 -23.4 80 -21  1048.5  -0.9  758  332           
18 06.03.10 тихо ()   4000 м    ясно 
-21.5 -24 80 -22  1047.4  -1.1  757  333           
21 06.03.10 тихо ()   4000 м    ясно 
-23.1 -24.9 84 -23  1047  -0.6  756  335           
00 07.03.10 тихо ()   4000 м    ясно 
-25.2 -26.4 90 -25  1046.7  -0.6  756  337  -25.3      46  равномерный
мокрый или
старый снег
100% 
03 07.03.10 тихо ()   4000 м  дымка  3/0 верхняя 
[Ci fib]
-20.7 -22.6 85 -21  1045.9  -0.2  756  331           
06 07.03.10 030 (СВ) 4000 м  дымка  4/0 верхняя 
[Ci fib]
-14.2 -18.5 70 -14  1042.9  -1.9  754  322           
09 07.03.10 030 (СВ) 4000 м  дым  1/0 верхняя 
[Ci fib]
-6.2 -13.1 58 -6  1040.3  -1.4  753  312           
12 07.03.10 130 (ЮВ) >10 км    9/0 верхняя 
[Ci fib]
-7.3 -16.8 47 -7  1039.9  -0.5  753  313    -2.6       
15 07.03.10 260 (З) 4000 м    5/0 верхняя 
[Ci fib]
-8.7 -17.9 47 -8  1038.9  -1.3  752  314           
18 07.03.10 230 (ЮЗ) 6{13}  4000 м  метель  6/0 верхняя 
[Ci fib]
-4.8 -16.8 39 -9  1036.5  -1.8  751  309           
21 07.03.10 250 (З) 5{14}  4000 м  позёмок  3/0 верхняя 
[Ci fib]
-5.2 -17.7 37 -9  1035.1  -1.3  750  309           
00 08.03.10 250 (З) 3{13}  4000 м    3/3 600 м кучево-дожд. 
[Cb cap]
-5.8 -17.5 39 -8  1034.6  -0.6  749  310  -9.9      46  равномерный
мокрый или
старый снег
100% 
03 08.03.10 190 (Ю) 6{13}  >10 км  метель  9/0 кучево-дожд., средняя 
[Cb cap|Ac trans]
-4.6 -17.1 37 -9  1032.8  -1.5  745  307           
06 08.03.10 240 (ЮЗ) 2{13}  >10 км    9/4 600 м кучево-дожд., средняя 
[Cb cap|Ac trans]
-1.2 -15.2 34 -2  1031.3  -1.1  747  304           
09 08.03.10 270 (З) >10 км    9/9 2000 м средняя 
[Ac trans]
-0.1 -15.4 31 -2  1029.1  -2  746  302           
12 08.03.10 210 (ЮЗ) >10 км    9/9 2000 м средняя 
[Ac trans]
-1.3 -15.5 33 -3  1026.7  -2.4  744  302    +0.3       
15 08.03.10 220 (ЮЗ) 7{14}  4000 м  метель  10/6 2000 м средняя, верхняя 
[Ac lent|Cs]
-1.5 -19.1 25 -6  1024.5  -2.1  742  302           
18 08.03.10 230 (ЮЗ) 6{14}  4000 м  метель  10/10 2000 м 
[Ns]
-1.9 -18.5 27 -6  1023.1  -1.5  741  302           
21 08.03.10 220 (ЮЗ) 7{14}  4000 м  метель  4/4 2000 м средняя 
[Ac lent]
-2.6 -17.9 30 -7  1020.7  -2.3  739  302           
00 09.03.10 220 (ЮЗ) 4{15}  4000 м    10/4 2000 м средняя, верхняя 
[Ac lent|Cs]
-3.2 -17 34 -6  1020.9  739  303  -3.4      42  равномерный
мокрый или
старый снег
100% 
03 09.03.10 240 (ЮЗ) >10 км  слаб. ливневой снег  9/6 600 м кучево-дожд., средняя 
[Cb cap|Ac trans]
-3.1 -8.5 66 -5  1021.2  0.3  740  302           
06 09.03.10 220 (ЮЗ) >10 км  слаб. ливневой снег  10/5 600 м кучево-дожд., средняя 
[Cb cap|Ac As]
-2.4 -6 76 -3  1020.3  -0.7  739  301           
09 09.03.10 230 (ЮЗ) >10 км  слаб. ливневой снег  10/8 600 м кучево-дожд., средняя 
[Cb cap|Ac As]
-1.4 -4.4 80 -2  1019.7  -0.5  739  300           
12 09.03.10 280 (З) 4000 м  слаб. ливневой снег  10/8 600 м кучево-дожд., средняя 
[Cb cap|Ac As]
-2.7 -3.7 93 -4  1018.9  -0.8  738  301    -1.2  0.3     
15 09.03.10 020 (С) н/о  ливневой снег  10/10 600 м кучево-дожд. 
[Cb cap]
-3.6 -4.1 96 -5  1018.2  -0.9  737  302           
18 09.03.10 060 (СВ) н/о  ливневой снег  10/10 600 м кучево-дожд. 
[Cb cap]
-4.4 -4.6 98 -7  1017  -1.3  737  302           
21 09.03.10 060 (СВ) н/о  ливневой снег  10/10 600 м кучево-дожд. 
[Cb cap]
-5.3 -5.6 98 -7  1016.3  -0.7  736  303           
00 10.03.10 070 (В) н/о  ливневой снег  10/10 600 м кучево-дожд. 
[Cb cap]
-7.8 -8.4 96 -12  1017.4  0.6  736  306  -8       
03 10.03.10 090 (В) 4000 м  ливневой снег  10/10 600 м кучево-дожд. 
[Cb cap]
-8.7 -9.8 92 -12  1018.2  0.8  737  308           
06 10.03.10 080 (В) 4000 м  ливневой снег  10/10 600 м кучево-дожд. 
[Cb cap]
-9.1 -10.6 89 -12  1018.4  737  308           
09 10.03.10 070 (В) 4000 м  ливневой снег  10/10 600 м кучево-дожд. 
[Cb cap]
-8.3 -9.7 90 -10  1017.7  -0.5  737  307           
12 10.03.10 080 (В) 4000 м  ливневой снег  10/10 600 м кучево-дожд. 
[Cb cap]
-9.5 -11.1 88 -12  1018.1  0.2  737  309    -5.5     
15 10.03.10 080 (В) 4000 м  слаб. ливневой снег  10/10 600 м кучево-дожд. 
[Cb cap]
-10.2 -13 80 -12  1018.8  0.6  737  310           
18 10.03.10 080 (В) 4000 м  {снег}  8/8 600 м кучево-дожд. 
[Cb cap]
-13 -14.3 90 -13  1018.9  -0.3  737  313           
21 10.03.10 тихо ()   4000 м    ясно 
-16 -17.3 90 -16  1019.4  0.1  737  317           
00 11.03.10 тихо ()   >10 км    9/3 2000 м средняя, верхняя 
[Ac lent|Ci fib]
-17.3 -18.5 91 -17  1019.7  0.1  737  319  -17.3    0.2  50  равномерный
сухой снег
100% 
06 11.03.10 030 (СВ) >10 км  в посл. час ливневой снег  9/4 600 м кучево-дожд., верхняя 
[Cb cap|Ci fib]
-9.4 -14.5 66 -11  1018.5  0.1  737  309           
09 11.03.10 040 (СВ) >10 км  {ливн. осадки}  9/6 600 м кучево-дожд., средняя, верхняя 
[Cb cap|Ac trans|Ci fib]
-6.6 -13.2 60 -6  1017.9  -0.2  737  305           
12 11.03.10 тихо ()   >10 км    9/3 600 м кучево-дожд., средняя, верхняя 
[Cb cap|Ac lent|Ci fib]
-9.9 -13.5 75 -10  1019.2  0.8  738  310    -6.4  0.2     
15 11.03.10 060 (СВ) 4000 м    6/3 600 м кучево-дожд., верхняя 
[Cb cap|Ci fib]
-13.3 -14.6 90 -13  1019.6  738  314           
18 11.03.10 тихо ()   4000 м    9/5 600 м кучево-дожд., верхняя 
[Cb cap|Ci fib]
-14.4 -15 95 -14  1019.4  -0.4  737  315           
21 11.03.10 тихо ()   4000 м    6/6 600 м кучево-дожд. 
[Cb cap]
-13.8 -15.1 90 -14  1017.9  -1.4  736  314           
00 12.03.10 тихо ()   >10 км    9/3 600 м кучево-дожд., средняя, верхняя 
[Cb cap|Ac lent|Ci fib]
-17.3 -17.9 95 -17  1016.4  -1.9  735  318  -17.3      49  равномерный
сухой снег
100% 
03 12.03.10 020 (С) >10 км    8/0 верхняя 
[Ci fib]
-13 -15 85 -13  1014.1  -1.6  734  312           
06 12.03.10 020 (С) >10 км    6/0 средняя, верхняя 
[Ac trans|Ci fib]
-8.1 -15.5 55 -8  1011.3  -2.1  732  305           
09 12.03.10 080 (В) >10 км    10/10 2000 м 
[Ac As]
-5.7 -12.9 57 -5  1009.7  -1.2  731  302           
12 12.03.10 090 (В) 4000 м  ливневой снег  10/8 600 м кучево-дожд., средняя 
[Cb cap|Ac As]
-7.1 -10 80 -9  1009.5  -0.4  731  303    -4.8  0.2     
15 12.03.10 тихо ()   н/о  ливневой снег  10/10 600 м кучево-дожд. 
[Cb cap]
-8.7 -9.8 92 -9  1009.7  0.1  731  305           
18 12.03.10 220 (ЮЗ) 4000 м  слаб. ливневой снег  10/10 600 м кучево-дожд. 
[Cb cap]
-4.7 -8.7 74 -9  1011.6  2.3  733  301           
21 12.03.10 220 (ЮЗ) 4000 м  слаб. ливневой снег  10/10 600 м кучево-дожд. 
[Cb cap]
-6.3 -8.6 84 -10  1014.6  2.7  735  304           
00 13.03.10 220 (ЮЗ) 4{14}  4000 м  слаб. ливневой снег  10/10 600 м кучево-дожд. 
[Cb cap]
-7.2 -10.6 77 -11  1018.2  3.3  737  306  -8.7    51  равномерный
сухой снег
100% 
03 13.03.10 220 (ЮЗ) >10 км  слаб. ливневой снег  10/10 600 м кучево-дожд. 
[Cb cap]
-6.8 -11.5 69 -10  1020.9  2.6  739  306           
06 13.03.10 230 (ЮЗ) 5{13}  >10 км  слаб. ливневой снег  10/4 600 м кучево-дожд., средняя, верхняя 
[Cb cap|As op|Ci fib]
-5.9 -11.6 64 -10  1023.1  2.2  741  306           
09 13.03.10 270 (З) >10 км  слаб. ливневой снег  10/8 600 м кучево-дожд., средняя 
[Cb cap|As op]
-6.1 -11 68 -9  1025.3  2.2  742  307           
12 13.03.10 210 (ЮЗ) >10 км  слаб. ливневой снег  10/4 600 м кучево-дожд., верхняя 
[Cb cap|Cs]
-7.3 -10.7 77 -10  1028  2.5  744  309    -5.6  0.6     
15 13.03.10 220 (ЮЗ) 4000 м  слаб. ливневой снег  10/8 600 м кучево-дожд., верхняя 
[Cb cap|Cs]
-7.7 -11.2 76 -10  1031.1  746  311           
18 13.03.10 230 (ЮЗ) 4000 м  слаб. ливневой снег  9/5 600 м кучево-дожд., верхняя 
[Cb cap|Ci sp]
-8.3 -11.5 78 -11  1033.2  1.7  748  312           
21 13.03.10 230 (ЮЗ) 4000 м  слаб. ливневой снег  10/8 600 м кучево-дожд., верхняя 
[Cb cap|Cs]
-8.4 -11.2 80 -11  1034.1  749  312           
00 14.03.10 240 (ЮЗ) >10 км  слаб. ливневой снег  10/6 600 м кучево-дожд., средняя 
[Cb cap|As trans]
-8.6 -11 83 -13  1035.1  749  313  -8.7    0.5  50  равномерный
сухой снег
100% 
03 14.03.10 240 (ЮЗ) >10 км  слаб. ливневой снег  9/5 600 м кучево-дожд., средняя, верхняя 
[Cb cap|Ac lent|Ci fib]
-7.3 -11.2 73 -9  1035.9  0.9  750  312           
06 14.03.10 220 (ЮЗ) >10 км  слаб. ливневой снег  9/3 600 м кучево-дожд., верхняя 
[Cb cap|Ci fib]
-4.5 -11.6 58 -7  1034.6  -0.8  749  308           
09 14.03.10 220 (ЮЗ) >10 км  {ливн. осадки}  10/4 600 м кучево-дожд., средняя, верхняя 
[Cb cap|Ac trans|Cs]
-3.6 -13.2 47 -6  1033.9  -0.6  749  307           
12 14.03.10 280 (З) >10 км  {ливн. осадки}  10/8 600 м кучево-дожд., средняя, верхняя 
[Cb cap|Ac trans|Cs]
-5.4 -12.4 58 -5  1033.7  -0.5  749  309    -2.4  0.0     
15 14.03.10 190 (Ю) 4000 м    4/4 2000 м средняя 
[Ac lent]
-9.1 -12.5 76 -9  1033.6  -0.6  748  313           
18 14.03.10 тихо ()   4000 м    3/3 2000 м средняя 
[Ac lent]
-11.6 -13.6 85 -12  1031.9  -1.9  747  315           
21 14.03.10 тихо ()   4000 м    3/0 верхняя 
[Ci fib]
-14.6 -15.2 95 -15  1030.3  -2  745  319           
00 15.03.10 тихо ()   >10 км    3/3 2000 м средняя 
[Ac lent]
-16.3 -16.9 95 -16  1028.7  -1.8  744  320  -16.3      49  равномерный
сухой снег
100% 
03 15.03.10 100 (В) >10 км    4/0 верхняя 
[Ci fib]
-10.2 -13 80 -10  1025.8  -1.9  742  312           
06 15.03.10 080 (В) >10 км    9/0 верхняя 
[Ci fib]
-4.3 -13.3 50 -7  1022  -2.9  740  304           
09 15.03.10 060 (СВ) >10 км    3/0 верхняя 
[Ci fib]
-3.4 -13.5 45 -6  1019.7  -2.2  739  302           
12 15.03.10 100 (В) >10 км    9/3 2000 м средняя, верхняя 
[Ac lent|Ci fib]
-4.9 -12.7 54 -6  1019.3  -0.5  738  304    -2.9       
15 15.03.10 100 (В) 4000 м    10/5 2000 м средняя, верхняя 
[Ac lent|Cs]
-6.7 -12.5 63 -8  1019.2  -0.4  738  306           
18 15.03.10 160 (Ю) 4000 м    8/3 2000 м средняя, верхняя 
[Ac lent|Ci fib]
-8.8 -13.8 67 -9  1019  -0.5  737  308           
21 15.03.10 120 (ЮВ) 4000 м    9/3 2000 м средняя, верхняя 
[Ac lent|Ci fib]
-9 -13.4 70 -9  1018.7  -0.3  737  308           
00 16.03.10 100 (В) >10 км  слаб. ливневой снег  10/10 600 м кучево-дожд. 
[Cb cap]
-8.8 -11.3 82 -10  1019.6  1.1  738  308  -9    0.0  48  равномерный
сухой снег
100% 
03 16.03.10 240 (ЮЗ) >10 км  слаб. ливневой снег  10/10 600 м кучево-дожд. 
[Cb cap]
-2.9 -5.6 82 -5  1020.1  739  301           
06 16.03.10 200 (Ю) >10 км  слаб. ливневой снег  10/8 600 м кучево-дожд., средняя 
[Cb cap|As op]
+0.2 -4.3 72 -1  1020.4  0.9  740  298           
09 16.03.10 270 (З) >10 км  в посл. час ливневой снег  8/6 600 м кучево-дожд., средняя, верхняя 
[Cb cap|Ac trans|Ci fib]
+2 -4.5 62 1020  -0.3  739  296           
12 16.03.10 170 (Ю) >10 км  {ливн. осадки}  8/4 600 м кучево-дожд., средняя 
[Cb cap|Ac trans]
-0.4 -5.9 66 1018.9  -1.3  738  299    +2.4  0.3     
15 16.03.10 240 (ЮЗ) 4000 м    9/8 600 м кучево-дожд., верхняя 
[Cb cap|Ci fib]
+0 -5.3 67 -1  1016.6  -2.3  737  297           
18 16.03.10 240 (ЮЗ) 4000 м    9/3 600 м кучево-дожд., верхняя 
[Cb cap|Ci fib]
+0.2 -6.6 60 -2  1015.1  -1.2  736  297           
21 16.03.10 220 (ЮЗ) 4000 м    9/8 600 м кучево-дожд., верхняя 
[Cb cap|Ci fib]
-0.1 -6.2 64 -3  1013  -2.3  734  296           
00 17.03.10 200 (Ю) >10 км  слаб. ливневой снег  10/10 600 м кучево-дожд. 
[Cb cap]
-1 -3.9 81 -3  1012.2  -0.8  733  297  -1.1    0.0  47  равномерный
сухой снег
100% 
03 17.03.10 250 (З) >10 км  слаб. ливневой снег  6/4 600 м кучево-дожд., средняя 
[Cb cap|Ac trans]
+0.9 -3.7 71 -1  1012.3  0.4  734  295           
06 17.03.10 300 (СЗ) >10 км  {ливн. осадки}  9/8 600 м кучево-дожд., средняя 
[Cb cap|Ac trans]
+1.7 -6 57 1011.8  -0.4  733  294           
09 17.03.10 290 (З) >10 км    5/5 600 м кучево-дожд. 
[Cb cap]
+2 -8.7 45 +1  1010.6  -1.2  732  294           
12 17.03.10 тихо ()   >10 км    6/3 2000 м средняя, верхняя 
[Ac trans|Ci fib]
-2.4 -9.2 60 -2  1010.3  -0.8  732  298    +2.9  0.4     
15 17.03.10 230 (ЮЗ) 4000 м    4/0 верхняя 
[Ci fib]
-5.6 -9 77 -5  1009.6  -1  734  303           
18 17.03.10 250 (З) 4000 м    5/0 верхняя 
[Ci fib]
-7.1 -8.8 88 -7  1008.8  -1.1  730  303           
21 17.03.10 тихо ()   4000 м    9/0 средняя, верхняя 
[Ac trans|Ci fib]
-8.2 -8.8 95 -8  1007.3  -1.5  729  304           
00 18.03.10 тихо ()   >10 км    10/9 600 м кучево-дожд., средняя 
[Cb cap|As trans]
-8.8 -9.1 97 -9  1006.9  -0.5  729  304  -8.8      47  равномерный
сухой снег
100% 
03 18.03.10 тихо ()   4000 м  ливневой снег  10/10 600 м кучево-дожд. 
[Cb cap]
-5.9 -7 92 -6  1006  -0.5  728  301           
06 18.03.10 тихо ()   4000 м  ливневой снег  10/10 600 м кучево-дожд. 
[Cb cap]
-4 -5.2 91 -4  1006.1  0.3  729  298           
09 18.03.10 030 (СВ) 0500 м  ливневой снег  10/10 600 м кучево-дожд. 
[Cb cap]
-2.3 -3.5 91 -2  1007.1  1.2  730  297           
12 18.03.10 270 (З) >10 км  в посл. час ливневой снег  3/3 600 м средняя 
[Ac lent]
-3.3 -4 95 -3  1007.6  0.4  730  298    -2     
15 18.03.10 240 (ЮЗ) 4000 м  слаб. ливневой снег  6/6 600 м кучево-дожд. 
[Cb cap]
-1.6 -1.8 99 -3  1008.5  1.1  731  296           
18 18.03.10 290 (З) н/о  ливневой снег  10/10 600 м кучево-дожд. 
[Cb cap]
-3.1 -3.8 95 -4  1011.5  2.7  733  299           
21 18.03.10 220 (ЮЗ) 4000 м  слаб. ливневой снег  10/8 600 м кучево-дожд., верхняя 
[Cb cap|Cs]
-3.8 -6.4 82 -6  1013.3  1.7  734  301           
00 19.03.10 210 (ЮЗ) 2000 м  ливневой снег  10/10 600 м кучево-дожд. 
[Cb cap]
-3.8 -5.3 89 -7    1.9  735  301         
03 19.03.10 240 (ЮЗ) >10 км  слаб. ливневой снег  9/5 600 м кучево-дожд., средняя 
[Cb cap|Ac trans]
-2.1 -5.3 79 -5  1017.7  2.5  737  300           
06 19.03.10 230 (ЮЗ) 4000 м  ливневой снег  10/10 600 м кучево-дожд. 
[Cb cap]
-1.8 -5.2 78 -5  1021.3  3.6  740  301           
09 19.03.10 230 (ЮЗ) 6{16}  >10 км  слаб. ливневой снег  9/8 600 м кучево-дожд., верхняя 
[Cb cap|Ci fib]
-1.7 -8.2 61 -5  1023.3  1.9  741  301           
12 19.03.10 220 (ЮЗ) 5{13}  >10 км  слаб. ливневой снег  9/6 600 м кучево-дожд., средняя, верхняя 
[Cb cap|Ac trans|Ci fib]
-3.4 -9 65 -7  1023.9  0.3  742  303    -0.6     
15 19.03.10 200 (Ю) 4000 м  позёмок{ливн. осадки}  ясно 600 м 
-3.9 -11.1 57 -7  1022.2  -1.7  740  304           
18 19.03.10 тихо ()   4000 м  {ливн. осадки}  4/0 верхняя 
[Ci fib]
-5.8 -12.5 59 -6  1019.9  -2.6  738  305           
21 19.03.10 тихо ()   4000 м    5/3 2000 м средняя, верхняя 
[Ac trans|Ci fib]
-8.5 -12.3 74 -9  1015.3  -4.6  735  307           
00 20.03.10 тихо ()   >10 км    6/6 2000 м средняя 
[Ac lent]
-12.3 -12.9 95 -12  1012.3  -3.5  732  310  -12.3    0.0  56  равномерный
сухой снег
100% 
03 20.03.10 080 (В) >10 км    10/3 600 м кучево-дожд., верхняя 
[Cb cap|Cs]
-6.3 -10.8 70 -6  1006.7  -4.5  729  302           
06 20.03.10 040 (СВ) >10 км    9/4 600 м кучево-дожд., верхняя 
[Cb cap|Cs]
-1.7 -10.5 51 -1  1003.5  -2.5  727  296           
09 20.03.10 030 (СВ) >10 км    10/4 600 м кучево-дожд., средняя 
[Cb cap|As trans]
+0.2 -9.1 50 +1  1001.9  -1.3  726  293           
12 20.03.10 тихо ()   >10 км    10/6 600 м кучево-дожд., средняя 
[Cb cap|As op]
-0.9 -9.2 53 -1  1003.2  727  295    +0.5       
15 20.03.10 250 (З) 4000 м    10/8 600 м кучево-дожд., средняя 
[Cb cap|Ac As]
-2.2 -7.3 68 -4  1006.6  3.2  729  297           
18 20.03.10 250 (З) 5{13}  4000 м  слаб. ливневой снег  10/8 600 м кучево-дожд., средняя 
[Cb cap|As op]
-4.6 -8.1 76 -8  1012.2  5.1  733  301           
21 20.03.10 250 (З) 5{13}  4000 м  слаб. ливневой снег  9/8 600 м кучево-дожд., верхняя 
[Cb cap|Ci fib]
-7.1 -10 80 -11  1019  6.2  738  306           
00 21.03.10 220 (ЮЗ) 4{12}  >10 км  слаб. ливневой снег  10/8 600 м кучево-дожд., верхняя 
[Cb cap|Cs]
-8.9 -11.8 79 -13  1023.9  4.4  741  310  -8.9    0.4  54  равномерный
сухой снег
100% 
03 21.03.10 210 (ЮЗ) >10 км  слаб. ливневой снег  10/6 600 м кучево-дожд., верхняя 
[Cb cap|Cs]
-7.2 -13 63 -11  1025.3  1.7  742  308           
06 21.03.10 220 (ЮЗ) 6{14}  >10 км  слаб. ливневой снег  10/6 600 м кучево-дожд., верхняя 
[Cb cap|Cs]
-5.7 -15.3 47 -10  1024.7  -0.5  742  307           
09 21.03.10 240 (ЮЗ) 3{14}  0500 м  ливневой снег  10/10 600 м кучево-дожд. 
[Cb cap]
-7.4 -9.1 87 -10  1024.1  -0.7  741  308           
12 21.03.10 230 (ЮЗ) 0500 м  ливневой снег  10/10 600 м кучево-дожд. 
[Cb cap]
-8.3 -9.3 93 -11  1024.5  0.3  742  309    -5.1     
15 21.03.10 270 (З) 4000 м  слаб. ливневой снег  6/4 600 м кучево-дожд., верхняя 
[Cb cap|Ci fib]
-10.3 -13.9 75 -14  1025.8  742  312           
18 21.03.10 220 (ЮЗ) 4000 м  слаб. ливневой снег  4/3 600 м кучево-дожд., верхняя 
[Cb cap|Ci fib]
-11.2 -14 80 -16  1026.8  0.7  743  313           
21 21.03.10 230 (ЮЗ) 4000 м  слаб. ливневой снег  5/3 600 м кучево-дожд., верхняя 
[Cb cap|Ci fib]
-12.2 -14.2 85 -16  1027.4  0.5  743  315           
00 22.03.10 200 (Ю) >10 км  {ливн. осадки}  3/3 2000 м средняя 
[Ac trans]
-13 -15.7 80 -16  1027.5  743  316  -13.7    0.4  57  равномерный
сухой снег
100% 
03 22.03.10 260 (З) >10 км    ясно 
-10.3 -14.7 70 -13  1026.7  -0.4  743  312           
06 22.03.10 270 (З) >10 км    8/8 600 м кучево-дожд. 
[Cb cap]
-6 -13.4 56 -7  1025.2  -0.9  742  307           
09 22.03.10 250 (З) >10 км  слаб. ливневой снег  8/8 600 м кучево-дожд. 
[Cb cap]
-5.3 -12.8 56 -8  1024.6  -0.4  742  306           
12 22.03.10 230 (ЮЗ) >10 км  {ливн. осадки}  ясно 
-8.2 -17.1 48 -8  1025.6  0.6  742  310    -3.7  0.0     
15 22.03.10 220 (ЮЗ) 4000 м    ясно 
-10.1 -17.4 55 -12  1027.9  1.9  744  313           
18 22.03.10 230 (ЮЗ) 4000 м    4/0 верхняя 
[Ci fib]
-11 -16.3 65 -14  1029.4  1.3  745  314           
21 22.03.10 220 (ЮЗ) 4000 м    3/0 верхняя 
[Ci fib]
-12.2 -15.7 75 -16  1031.6  746  316           
00 23.03.10 200 (Ю) >10 км    5/3 2000 м средняя, верхняя 
[Ac trans|Ci fib]
-12.4 -15.9 75 -16  1032.8  1.2  747  317  -12.4      54  равномерный
сухой снег
100% 
03 23.03.10 210 (ЮЗ) >10 км    8/0 верхняя 
[Ci sp]
-9.5 -14.1 69 -12  1034.4  1.9  749  314           
06 23.03.10 290 (З) >10 км    9/8 600 м кучево-дожд., верхняя 
[Cb cap|Ci fib]
-4.5 -14.9 44 -7  1034  0.3  749  308           
09 23.03.10 220 (ЮЗ) >10 км    9/8 600 м кучево-дожд., верхняя 
[Cb cap|Ci fib]
-3 -15.9 36 -5  1033.3  -0.6  748  306           
12 23.03.10 230 (ЮЗ) >10 км    10/0 верхняя 
[Cs]
-6.1 -18.9 36 -8  1033.4  -0.3  748  310    -2.8       
15 23.03.10 220 (ЮЗ) 4000 м    10/0 верхняя 
[Cs]
-7.3 -19.9 36 -10  1032.6  -0.9  748  311           
18 23.03.10 230 (ЮЗ) 4000 м    10/0 верхняя 
[Cs]
-7.5 -16.5 49 -10  1030.6  -1.9  746  310           
21 23.03.10 230 (ЮЗ) 4000 м    10/0 верхняя 
[Cs]
-7.4 -16.3 49 -10  1030.3  -0.3  746  310           
00 24.03.10 210 (ЮЗ) >10 км    10/4 2000 м средняя, верхняя 
[Ac lent|Ci fib]
-7.5 -16.5 49 -11  1028.7  -1.5  745  310  -8.5      52  равномерный
мокрый или
старый снег
100% 
03 24.03.10 190 (Ю) 6{14}  >10 км  метель  9/8 600 м кучево-дожд., средняя, верхняя 
[Cb cap|Ac trans|Ci fib]
-4.5 -13.7 49 -9  1026.5  -1.8  743  306           
06 24.03.10 220 (ЮЗ) 5{13}  >10 км  слаб. ливневой снег  10/8 600 м кучево-дожд., верхняя 
[Cb cap|Cs]
-0.8 -8.5 56 -4  1023.9  -2.1  742  301           
09 24.03.10 200 (Ю) 7{15}  >10 км  слаб. ливневой снег  10/10 600 м кучево-дожд. 
[Cb cap]
-0.2 -5.6 67 -4  1022.8  -1  741  299           
12 24.03.10 230 (ЮЗ) 6{15}  >10 км  слаб. ливневой снег  10/10 600 м кучево-дожд. 
[Cb cap]
-0.7 -2.6 87 -4  1023  0.2  741  300    +0.3  0.6     
15 24.03.10 230 (ЮЗ) 6{13}  4000 м  слаб. ливневой снег  10/8 600 м кучево-дожд., верхняя 
[Cb cap|Cs]
+0 -2.3 84 -3  1022.7  -0.2  741  299           
18 24.03.10 210 (ЮЗ) 3{14}  4000 м  {ливн. осадки}  10/8 600 м кучево-дожд., верхняя 
[Cb cap|Cs]
+0.4 -3.1 77 -1  1021.9  -0.7  741  298           
21 24.03.10 210 (ЮЗ) 4000 м    10/6 600 м кучево-дожд., верхняя 
[Cb cap|Cs]
+0.5 -3.9 72 -1  1021.5  -0.4  740  298           
00 25.03.10 210 (ЮЗ) 6{12}  >10 км    10/10 600 м кучево-дожд. 
[Cb cap]
+1.1 -3.4 72 -2  1021  -0.3  740  297  -0.8    0.0  49  равномерный
мокрый или
старый снег
100% 
03 25.03.10 220 (ЮЗ) 5{12}  >10 км    10/6 600 м кучево-дожд., средняя 
[Cb cap|As trans]
+2.4 -4.3 61 1021.5  0.6  740  296           
06 25.03.10 220 (ЮЗ) >10 км    10/3 600 м кучево-дожд., средняя, верхняя 
[Cb cap|Ac lent|Cs]
+6 -3.7 50 +4  1020.8  -0.2  740  292           
09 25.03.10 220 (ЮЗ) >10 км    10/8 600 м кучево-дожд., верхняя 
[Cb cap|Cs]
+5.7 -3.4 52 +5  1021.1  0.2  740  293           
12 25.03.10 270 (З) >10 км  слаб. ливневой дождь  9/8 600 м кучево-дожд., верхняя 
[Cb cap|Ci fib]
+3.2 -1.6 71 +1  1023.3  1.8  742  296    +6.6  0.0     
15 25.03.10 230 (ЮЗ) 4000 м  {ливн. осадки}  4/3 600 м кучево-дожд., средняя 
[Cb cap|Ac trans]
+0.7 -4.3 69 -1  1025.9  2.1  743  299           
18 25.03.10 250 (З) 4000 м  {ливн. осадки}  9/5 600 м кучево-дожд., средняя, верхняя 
[Cb cap|Ac trans|Ci fib]
-0.2 -5.4 68 -2  1027.3  1.3  744  301           
21 25.03.10 240 (ЮЗ) 4000 м    ясно 
-2.1 -10.2 54 -3  1028.3  0.7  745  303           
00 26.03.10 200 (Ю) >10 км    ясно 
-3.5 -10.7 57 -5  1028.2  -0.2  745  305  -3.5    0.0  42  равномерный
мокрый или
старый снег
100% 
03 26.03.10 240 (ЮЗ) >10 км    4/0 верхняя 
[Ci fib]
+0.4 -8.4 52 -1  1027.1  -0.6  744  300           
06 26.03.10 220 (ЮЗ) >10 км    8/8 600 м кучево-дожд., верхняя 
[Cb cap|Ci fib]
+3 -7.1 47 +2  1024.5  -2.2  743  297           
09 26.03.10 220 (ЮЗ) >10 км    10/0 верхняя 
[Cs]
+4.7 -11.1 31 +6  1021.3  -2.8  741  294           
12 26.03.10 110 (В) >10 км    9/8 2000 м средняя, верхняя 
[Ac trans|Ci fib]
+2.1 -6.7 52 +3  1019  -2.6  739  296    +5.5       
15 26.03.10 тихо ()   4000 м    10/3 2000 м средняя, верхняя 
[Ac lent|Cs]
-2 -7.3 67 -2  1017.2  -2.3  737  300           
18 26.03.10 тихо ()   4000 м    ясно 
-4 -7.7 75 -4  1015.2  -2.2  735  301           
21 26.03.10 тихо ()   4000 м    4/0 верхняя 
[Ci fib]
-4.4 -7.1 81 -4  1014.4  -0.8  735  302           
00 27.03.10 220 (ЮЗ) >10 км    9/4 2000 м средняя, верхняя 
[Ac lent|Ci fib]
-5.3 -7.8 83 -5  1010.6  -3.8  732  301  -5.3      42  равномерный
мокрый или
старый снег
100% 
03 27.03.10 030 (СВ) >10 км    10/0 верхняя 
[Cs]
+0.3 -3.4 76 1007  -2.7  730  294           
06 27.03.10 210 (ЮЗ) >10 км    10/4 2000 м средняя, верхняя 
[Ac lent|Cs]
+10 -5.7 33 +9  1003.8  -2  728  284           
09 27.03.10 270 (З) >10 км    10/5 600 м кучево-дожд., средняя, верхняя 
[Cb cap|Ac trans|Cs]
+11.8 -8.2 24 +12  1002.6  -1  728  282           
12 27.03.10 240 (ЮЗ) 4{13}  >10 км  {ливн. осадки}  10/8 600 м кучево-дожд., средняя 
[Cb cap|Ac As]
+4.5 -1.9 63 +3  1001.7  1.7  729  289    +12  0.3     
15 27.03.10 240 (ЮЗ) 4000 м    8/6 600 м кучево-дожд., верхняя 
[Cb cap|Ci fib]
+2.2 -6.6 52 1007.5  730  293           
18 27.03.10 240 (ЮЗ) 4000 м    9/5 600 м кучево-дожд., верхняя 
[Cb cap|Ci fib]
-1.5 -11.4 47 -3  1012.8  4.7  734  298           
21 27.03.10 250 (З) 4000 м    9/3 600 м кучево-дожд., верхняя 
[Cb cap|Ci fib]
-3.4 -12.4 50 -7  1016.1  2.8  736  301           
00 28.03.10 230 (ЮЗ) >10 км  слаб. ливневой снег  9/8 600 м кучево-дожд., верхняя 
[Cb cap|Ci fib]
-5.5 -9.3 75 -9  1019.3  738  304  -5.5    0.0  35  равномерный
сухой снег
100% 
03 28.03.10 280 (З) 3{13}  >10 км  {ливн. осадки}  9/9 600 м кучево-дожд., верхняя 
[Cb cap|Ci fib]
-5.1 -13 54 -7  1023  3.5  741  305           
06 28.03.10 260 (З) 6{12}  >10 км  слаб. ливневой снег  9/8 600 м кучево-дожд., верхняя 
[Cb cap|Ci fib]
-5.1 -11 63 -10  1025.5  2.5  743  306           
09 28.03.10 280 (З) 5{12}  >10 км  {ливн. осадки}  9/8 600 м кучево-дожд., верхняя 
[Cb cap|Ci fib]
-4.7 -13.5 50 -9  1026.4  0.8  743  306           
12 28.03.10 240 (ЮЗ) 4{12}  >10 км  {ливн. осадки}  8/8 600 м кучево-дожд. 
[Cb cap]
-4.9 -13.8 50 -8  1026.3  -0.1  743  306    -3.8  0.0     
15 28.03.10 240 (ЮЗ) 4000 м    ясно 
-6.4 -14 55 -9  1025.1  -1.3  742  307           
18 28.03.10 240 (ЮЗ) 4000 м    10/4 600 м кучево-дожд., верхняя 
[Cb cap|Cs]
-6.7 -13.3 59 -9  1023.9  -1.3  741  307           
21 28.03.10 220 (ЮЗ) 4000 м    10/5 600 м кучево-дожд., средняя 
[Cb cap|As trans]
-6.4 -11.9 65 -9  1020.6  -3.1  739  306           
00 29.03.10 210 (ЮЗ) >10 км    9/3 600 м кучево-дожд., средняя, верхняя 
[Cb cap|Ac trans|Ci fib]
-6 -11.3 66 -7  1017  -3.4  736  304  -7      35  равномерный
мокрый или
старый снег
100% 
03 29.03.10 210 (ЮЗ) >10 км  слаб. ливневой снег  10/5 600 м кучево-дожд., средняя, верхняя 
[Cb cap|Ac trans|Cs]
-3.6 -8.8 67 -7  1014.4  -2.2  735  301           
06 29.03.10 230 (ЮЗ) >10 км  в посл. час ливневой снег  9/6 600 м кучево-дожд., верхняя 
[Cb cap|Ci sp]
-0.2 -9.8 48 -2  1013.4  -0.6  734  297           
09 29.03.10 280 (З) >10 км  в посл. час ливневой снег  8/5 600 м кучево-дожд., верхняя 
[Cb cap|Ci fib]
-0.6 -6.6 64 -3  1014.1  0.7  735  297           
12 29.03.10 310 (СЗ) >10 км  {ливн. осадки}  4/3 600 м кучево-дожд., верхняя 
[Cb cap|Ci fib]
-2.8 -12.4 47 -4  1016.5  1.9  736  301    +0.7     
15 29.03.10 270 (З) 4000 м    9/8 600 м кучево-дожд., верхняя 
[Cb cap|Ci fib]
-4.9 -9.5 70 -6  1019.5  2.8  738  304           
18 29.03.10 270 (З) 4000 м    10/4 600 м кучево-дожд., верхняя 
[Cb cap|Cs]
-5.7 -9.5 75 -8  1022.6  741  306           
21 29.03.10 240 (ЮЗ) 4000 м    10/0 верхняя 
[Cs]
-6.7 -10 77 -8  1024.6  1.7  742  307           
00 30.03.10 270 (З) >10 км    10/4 600 м кучево-дожд., средняя, верхняя 
[Cb cap|Ac lent|Cs]
-8.2 -10.9 81 -11  1027.4  2.5  744  310  -8.2      36  равномерный
сухой снег
100% 
03 30.03.10 260 (З) >10 км  слаб. ливневой снег  9/9 600 м кучево-дожд. 
[Cb cap]
-5.8 -10.1 72 -8  1028.9  1.7  745  308           
06 30.03.10 240 (ЮЗ) 4000 м  ливневой снег  10/10 600 м кучево-дожд. 
[Cb cap]
-4.6 -11.2 60 -7  1029  0.3  745  306           
09 30.03.10 260 (З) >10 км  слаб. ливневой снег  9/8 600 м кучево-дожд., верхняя 
[Cb cap|Ci fib]
-3.4 -10.8 57 -6  1029.1  0.2  745  305           
12 30.03.10 280 (З) >10 км  слаб. ливневой снег  10/10 600 м кучево-дожд. 
[Cb cap]
-5.9 -9.8 74 -6  1030.7  1.2  746  308    -3     
15 30.03.10 240 (ЮЗ) 4000 м  слаб. ливневой снег  10/10 600 м кучево-дожд. 
[Cb cap]
-6.1 -9.6 76 -9  1031.2  0.5  747  309           
18 30.03.10 230 (ЮЗ) 4000 м  слаб. ливневой снег  10/4 600 м кучево-дожд., средняя, верхняя 
[Cb cap|Ac lent|Cs]
-6.4 -8.3 86 -9  1031.2  747  309           
21 30.03.10 240 (ЮЗ) 4000 м  слаб. ливневой снег  8/3 600 м кучево-дожд., средняя, верхняя 
[Cb cap|Ac trans|Ci fib]
-6.4 -10 75 -8  1033.1  1.8  748  310           
00 31.03.10 220 (ЮЗ) >10 км  слаб. ливневой снег  9/3 600 м кучево-дожд., средняя, верхняя 
[Cb cap|Ac lent|Ci sp]
-7.2 -9.3 85 -10  1031  -2.1  746  310  -7.2    0.3  37  равномерный
сухой снег
100% 
03 31.03.10 230 (ЮЗ) >10 км  слаб. ливневой снег  10/4 600 м кучево-дожд., верхняя 
[Cb cap|Cs]
-4.6 -9.4 69 -7  1030.5  -0.1  746  307           
06 31.03.10 190 (Ю) >10 км  слаб. ливневой снег  9/8 600 м кучево-дожд., верхняя 
[Cb cap|Ci fib]
-2.5 -8.9 61 -4  1029.9  -0.4  746  304           
09 31.03.10 210 (ЮЗ) >10 км  слаб. ливневой снег  9/8 600 м кучево-дожд., средняя 
[Cb cap|Ac trans]
-1.6 -8.5 59 -3  1029.1  -0.6  746  303           
12 31.03.10 200 (Ю) >10 км  {ливн. осадки}  10/5 600 м кучево-дожд., средняя, верхняя 
[Cb cap|Ac lent|Cs]
-2 -8.7 60 -3  1029  -0.2  745  303    -0.6  0.0     
15 31.03.10 210 (ЮЗ) 4000 м  слаб. ливневой снег  9/3 600 м кучево-дожд., верхняя 
[Cb cap|Ci fib]
-4.6 -7.3 82 -7  1028.5  -0.7  745  306           
18 31.03.10 200 (Ю) 4000 м  слаб. ливневой снег  10/10 600 м кучево-дожд. 
[Cb cap]
-4.2 -6.1 87 -5  1026.9  -1.6  744  305           
21 31.03.10 230 (ЮЗ) 4000 м  слаб. ливневой снег  10/10 600 м кучево-дожд. 
[Cb cap]
-3.8 -6 85 -6  1024.8  -1.9  742  304           
00 01.04.10 210 (ЮЗ) 4000 м  ливневой снег  10/10 600 м кучево-дожд. 
[Cb cap]
-3.9 -5.1 91 -7  1022.9  -2  741  303  -4.6    38  равномерный
сухой снег
100% 
03 01.04.10 220 (ЮЗ) >10 км  позёмок{ливн. осадки}  10/6 600 м кучево-дожд., средняя, верхняя 
[Cb cap|Ac trans|Cs]
-1.6 -4.6 80 -5  1020.7  -1.7  740  300           
06 01.04.10 240 (ЮЗ) >10 км  {ливн. осадки}  9/5 600 м кучево-дожд., средняя, верхняя 
[Cb cap|Ac trans|Cs]
+1.9 -3.8 66 1018.3  -1.9  738  296           
09 01.04.10 310 (СЗ) >10 км    10/8 600 м кучево-дожд., средняя 
[Cb cap|As op]
+2.8 -3.8 62 +2  1017  -1.2  737  294           
Время (UTC), дата Ветер
(°,м/с) 
Видим.   Явления Облачность Т
(°С)
Тd
(°С)
f(%) Тe
(°С)
Pmin
(гПа)
dP
(гПа)
Po
(мм)
O2
(г/м3)
Тmin Tmax R s Состояние
почвы